Regional Weather Roundup
Issued by NWS

Home | Current Version | Previous Version | Graphics & Text | Print | Product List | Glossary On
Versions: 1 2 3 4 5 6 7 8 9 10 11 12 13 14 15 16 17 18 19 20 21 22 23 24 25 26 27 28 29 30 31 32 33 34 35 36 37 38 39 40 41 42 43 44 45 46 47 48 49 50
000
ASUS43 KDMX 172101
RWRIA

WEATHER ROUNDUP FOR IOWA
NATIONAL WEATHER SERVICE DES MOINES IA
300 PM CST SAT FEB 17 2018

NOTE: "FAIR" INDICATES FEW OR NO CLOUDS BELOW 12,000 FEET WITH NO
SIGNIFICANT WEATHER AND/OR OBSTRUCTIONS TO VISIBILITY.

* - THESE STATIONS ARE NOT NWS STATIONS...THUS NOT UNDER NWS
QUALITY CONTROL.  THEY ALSO DO NOT REPORT WEATHER SUCH
AS PRECIPITATION OR FOG.

IAZ001>003-012>014-020>022-031>034-043>046-172200-
   NORTHWEST IOWA

CITY           SKY/WX    TMP DP  RH WIND       PRES   REMARKS
CARROLL *      CLOUDY    37  28  70 NW20G25   30.02R WCI  27
CHEROKEE *     SUNNY     34  29  82 NW15      30.03R WCI  24
DENISON *      PTSUNNY   37  27  65 NW16G22   30.05R WCI  28
LE MARS *      SUNNY     34  27  75 NW10G17   30.04R WCI  26
ORANGE CITY *  SUNNY     32  28  86 W14       30.01R WCI  22
SHELDON *      MOSUNNY   32  28  86 NW12G17   29.98R WCI  23
SIOUX CITY     SUNNY     35  26  69 NW13      30.06R WCI  26
SPENCER        MOSUNNY   34  27  75 NW18      29.99R WCI  23
STORM LAKE *   SUNNY     32  28  86 NW20      30.00R WCI  20
$$

IAZ055>058-069>071-079>083-090>094-172200-
   SOUTHWEST IOWA

CITY           SKY/WX    TMP DP  RH WIND       PRES   REMARKS
ATLANTIC *     SUNNY     45  27  49 NW18      30.03R
AUDUBON *      MOSUNNY   43  28  56 W9G16     30.03R
CLARINDA *     SUNNY     48  27  43 NW12G20   30.08R
COUNCIL BLFS * SUNNY     46  27  46 NW13G23   30.05R
CRESTON *      SUNNY     45  25  45 NW21      30.03R
HARLAN  *      SUNNY     43  27  52 NW24G32   30.06R
LAMONI         SUNNY     46  23  40 NW22G32   30.03R
RED OAK *      SUNNY     48  25  40 NW16G23   30.06R
SHENANDOAH *   SUNNY     48  27  43 W13       30.07R
$$

IAZ047>049-059>061-072>074-084-172200-
   CENTRAL IOWA

CITY           SKY/WX    TMP DP  RH WIND       PRES   REMARKS
AMES           SUNNY     34  27  75 NW13      30.01R WCI  25
ANKENY *       MOSUNNY   37  28  70 NW13G20   30.02R WCI  29
BOONE *        PTSUNNY   36  28  75 W17G24    29.99R WCI  25
CHARITON *     SUNNY     43  27  52 NW18      30.01R
DES MOINES     MOSUNNY   39  29  67 NW16      30.02R WCI  30
GRINNELL*      PTSUNNY   32  27  81 W18G24    29.99R WCI  21
KNOXVILLE *    SUNNY     39  27  60 W14G21    30.00R WCI  31
MARSHALLTOWN   CLOUDY    31  26  82 NW17      29.99R WCI  19
NEWTON *       CLOUDY    34  28  80 NW18      30.01R WCI  23
PELLA *        PTSUNNY   39  29  66 NW13      30.02R WCI  31
PERRY *        PTSUNNY   38  32  78 W12       30.01R WCI  31
$$

IAZ004>006-015-016-023>025-035-036-172200-
   NORTH CENTRAL IOWA

CITY           SKY/WX    TMP DP  RH WIND       PRES   REMARKS
CLARION *      MOSUNNY   32  32 100 NW13      29.98R WCI  22
ESTHERVILLE    SUNNY     31  26  82 W23       29.96R WCI  18
FORT DODGE *   MOSUNNY   32  27  81 W9        29.99R WCI  24
MASON CITY     MOSUNNY   32  25  75 NW10      29.96R WCI  24
WEBSTER CITY * SUNNY     32  27  80 NW17      29.97R WCI  21
IOWA FALLS *   FAIR      32  27  83 W14       29.98R WCI  22
$$

IAZ007>011-017>019-026>030-037>042-050>054-066-172200-
   NORTHEAST IOWA

CITY           SKY/WX    TMP DP  RH WIND       PRES   REMARKS
CEDAR RAPIDS   CLOUDY    31  25  78 NW15      29.95R WCI  20
CHARLES CITY * CLOUDY    30  30 100 W10G20    29.94R WCI  21
CLINTON *      LGT SNOW  32  29  88 W14       29.94R FOG     WCI  22
DECORAH *      CLOUDY    28  23  80 W9G17     29.91R WCI  20
DUBUQUE        CLOUDY    28  23  81 W12       29.91R HAZE    WCI  18
MONTICELLO *   CLOUDY    30  25  80 W14       29.95R WCI  20
OELWEIN *      CLOUDY    28  28 100 NW20      29.94R WCI  15
WATERLOO       CLOUDY    29  24  82 W15G23    29.96R WCI  18
$$

IAZ064-065-067-068-078-172200-
   EAST CENTRAL IOWA

CITY           SKY/WX    TMP DP  RH WIND       PRES   REMARKS
DAVENPORT      CLOUDY    32  27  81 W16       29.96R WCI  21
IOWA CITY      CLOUDY    33  25  72 W16       29.98R WCI  23
MT. PLEASANT * MOSUNNY   36  28  75 NW15G21   29.98R WCI  26
MUSCATINE *    CLOUDY    34  27  75 W21       29.99R WCI  22
QUAD CITIES    CLOUDY    33  28  81 W15       29.94R WCI  23
$$

IAZ062-063-075>077-085>089-095>099-172200-
   SOUTHEAST IOWA

CITY           SKY/WX    TMP DP  RH WIND       PRES   REMARKS
BURLINGTON     CLOUDY    36  29  75 W12       29.98R WCI  28
FAIRFIELD *    SUNNY     36  28  75 W20       29.99R WCI  25
FORT MADISON * CLOUDY    37  32  81 W9        29.99R WCI  31
KEOKUK *       PTSUNNY   39  32  75 W15       29.99R WCI  31
OSKALOOSA *    FAIR      33  27  76 NW18G25   30.00R WCI  22
OTTUMWA        SUNNY     39  26  59 NW18G25   29.99R WCI  30
WASHINGTON *   CLOUDY    34  28  80 W16G25    30.00R WCI  23
$$

ABBREVIATIONS USED IN REMARKS
   TC - TEMPERATURES IN CELSIUS
  WCI - WIND CHILL INDEX
   HX - HEAT INDEX
  VSB - VISIBILITY
$$





USA.gov is the U.S. government's official web portal to all federal, state and local government web resources and services.